"Time","Value","Approval","myLocation"
"2023-05-07 00:00",19.7262809843763,"Approved","OW442"
"2023-05-07 01:00",19.7263007262177,"Approved","OW442"
"2023-05-07 02:00",19.7263204680592,"Approved","OW442"
"2023-05-07 03:00",19.7273402099007,"Approved","OW442"
"2023-05-07 04:00",19.7293599517422,"Approved","OW442"
"2023-05-07 05:00",19.7293796935836,"Approved","OW442"
"2023-05-07 06:00",19.7303994354251,"Approved","OW442"
"2023-05-07 07:00",19.7304191772666,"Approved","OW442"
"2023-05-07 08:00",19.7304389191081,"Approved","OW442"
"2023-05-07 09:00",19.7304586609495,"Approved","OW442"
"2023-05-07 10:00",19.730478402791,"Approved","OW442"
"2023-05-07 11:00",19.7304981446325,"Approved","OW442"
"2023-05-07 12:00",19.730517886474,"Approved","OW442"
"2023-05-07 13:00",19.7295376283154,"Approved","OW442"
"2023-05-07 14:00",19.7305573701569,"Approved","OW442"
"2023-05-07 15:00",19.7315771119984,"Approved","OW442"
"2023-05-07 16:00",19.7315968538399,"Approved","OW442"
"2023-05-07 17:00",19.7316165956813,"Approved","OW442"
"2023-05-07 18:00",19.7316363375228,"Approved","OW442"
"2023-05-07 19:00",19.7316560793643,"Approved","OW442"
"2023-05-07 20:00",19.7306758212058,"Approved","OW442"
"2023-05-07 21:00",19.7306955630472,"Approved","OW442"
"2023-05-07 22:00",19.7297153048887,"Approved","OW442"
"2023-05-07 23:00",19.7287350467302,"Approved","OW442"
"2023-05-08 00:00",19.7277547885717,"Approved","OW442"
"2023-05-08 01:00",19.7267745304131,"Approved","OW442"
"2023-05-08 02:00",19.7267942722546,"Approved","OW442"
"2023-05-08 03:00",19.7268140140961,"Approved","OW442"
"2023-05-08 04:00",19.7278337559376,"Approved","OW442"
"2023-05-08 05:00",19.728853497779,"Approved","OW442"
"2023-05-08 06:00",19.7288732396205,"Approved","OW442"
"2023-05-08 07:00",19.728892981462,"Approved","OW442"
"2023-05-08 08:00",19.7299127233035,"Approved","OW442"
"2023-05-08 09:00",19.7289324651449,"Approved","OW442"
"2023-05-08 10:00",19.7289522069864,"Approved","OW442"
"2023-05-08 11:00",19.7289719488279,"Approved","OW442"
"2023-05-08 12:00",19.7289916906694,"Approved","OW442"
"2023-05-08 13:00",19.7290114325108,"Approved","OW442"
"2023-05-08 14:00",19.7300311743523,"Approved","OW442"
"2023-05-08 15:00",19.7300509161938,"Approved","OW442"
"2023-05-08 16:00",19.7300706580353,"Approved","OW442"
"2023-05-08 17:00",19.7300903998767,"Approved","OW442"
"2023-05-08 18:00",19.7281101417182,"Approved","OW442"
"2023-05-08 19:00",19.7271298835597,"Approved","OW442"
"2023-05-08 20:00",19.7251496254012,"Approved","OW442"
"2023-05-08 21:00",19.7231693672426,"Approved","OW442"
"2023-05-08 22:00",19.7201891090841,"Approved","OW442"
"2023-05-08 23:00",19.7202088509256,"Approved","OW442"
"2023-05-09 00:00",19.7202285927671,"Approved","OW442"
"2023-05-09 01:00",19.7212483346085,"Approved","OW442"
"2023-05-09 02:00",19.72126807645,"Approved","OW442"
"2023-05-09 03:00",19.7202878182915,"Approved","OW442"
"2023-05-09 04:00",19.722307560133,"Approved","OW442"
"2023-05-09 05:00",19.7233273019744,"Approved","OW442"
"2023-05-09 06:00",19.7243470438159,"Approved","OW442"
"2023-05-09 07:00",19.7253667856574,"Approved","OW442"
"2023-05-09 08:00",19.7263865274989,"Approved","OW442"
"2023-05-09 09:00",19.7274062693403,"Approved","OW442"
"2023-05-09 10:00",19.7284260111818,"Approved","OW442"
"2023-05-09 11:00",19.7294457530233,"Approved","OW442"
"2023-05-09 12:00",19.7304654948648,"Approved","OW442"
"2023-05-09 13:00",19.7314852367062,"Approved","OW442"
"2023-05-09 14:00",19.7325049785477,"Approved","OW442"
"2023-05-09 15:00",19.7335247203892,"Approved","OW442"
"2023-05-09 16:00",19.7345444622307,"Approved","OW442"
"2023-05-09 17:00",19.7335642040721,"Approved","OW442"
"2023-05-09 18:00",19.7315839459136,"Approved","OW442"
"2023-05-09 19:00",19.7306036877551,"Approved","OW442"
"2023-05-09 20:00",19.7296234295966,"Approved","OW442"
"2023-05-09 21:00",19.727643171438,"Approved","OW442"
"2023-05-09 22:00",19.7266629132795,"Approved","OW442"
"2023-05-09 23:00",19.724682655121,"Approved","OW442"
"2023-05-10 00:00",19.7227023969625,"Approved","OW442"
"2023-05-10 01:00",19.7227221388039,"Approved","OW442"
"2023-05-10 02:00",19.7217418806454,"Approved","OW442"
"2023-05-10 03:00",19.7237616224869,"Approved","OW442"
"2023-05-10 04:00",19.7247813643284,"Approved","OW442"
"2023-05-10 05:00",19.7268011061698,"Approved","OW442"
"2023-05-10 06:00",19.7278208480113,"Approved","OW442"
"2023-05-10 07:00",19.7298405898528,"Approved","OW442"
"2023-05-10 08:00",19.7308603316943,"Approved","OW442"
"2023-05-10 09:00",19.7318800735357,"Approved","OW442"
"2023-05-10 10:00",19.7318998153772,"Approved","OW442"
"2023-05-10 11:00",19.7329195572187,"Approved","OW442"
"2023-05-10 12:00",19.7339392990602,"Approved","OW442"
"2023-05-10 13:00",19.7339590409016,"Approved","OW442"
"2023-05-10 14:00",19.7349787827431,"Approved","OW442"
"2023-05-10 15:00",19.7359985245846,"Approved","OW442"
"2023-05-10 16:00",19.7360182664261,"Approved","OW442"
"2023-05-10 17:00",19.7340380082676,"Approved","OW442"
"2023-05-10 18:00",19.734057750109,"Approved","OW442"
"2023-05-10 19:00",19.7310774919505,"Approved","OW442"
"2023-05-10 20:00",19.729097233792,"Approved","OW442"
"2023-05-10 21:00",19.7271169756335,"Approved","OW442"
"2023-05-10 22:00",19.7261367174749,"Approved","OW442"
"2023-05-10 23:00",19.7241564593164,"Approved","OW442"
"2023-05-11 00:00",19.7241762011579,"Approved","OW442"
"2023-05-11 01:00",19.7241959429994,"Approved","OW442"
"2023-05-11 02:00",19.7242156848408,"Approved","OW442"
"2023-05-11 03:00",19.7242354266823,"Approved","OW442"
"2023-05-11 04:00",19.7252551685238,"Approved","OW442"
"2023-05-11 05:00",19.7332749103652,"Approved","OW442"
"2023-05-11 06:00",19.7392946522067,"Approved","OW442"
"2023-05-11 07:00",19.7443143940482,"Approved","OW442"
"2023-05-11 08:00",19.7473341358897,"Approved","OW442"
"2023-05-11 09:00",19.7493538777311,"Approved","OW442"
"2023-05-11 10:00",19.7493736195726,"Approved","OW442"
"2023-05-11 11:00",19.7513933614141,"Approved","OW442"
"2023-05-11 12:00",19.7534131032556,"Approved","OW442"
"2023-05-11 13:00",19.7584328450971,"Approved","OW442"
"2023-05-11 14:00",19.7594525869385,"Approved","OW442"
"2023-05-11 15:00",19.76147232878,"Approved","OW442"
"2023-05-11 16:00",19.7624920706215,"Approved","OW442"
"2023-05-11 17:00",19.763511812463,"Approved","OW442"
"2023-05-11 18:00",19.7605315543044,"Approved","OW442"
"2023-05-11 19:00",19.7575512961459,"Approved","OW442"
"2023-05-11 20:00",19.7565710379874,"Approved","OW442"
"2023-05-11 21:00",19.7505907798289,"Approved","OW442"
"2023-05-11 22:00",19.7436105216703,"Approved","OW442"
"2023-05-11 23:00",19.7396302635118,"Approved","OW442"
"2023-05-12 00:00",19.7376500053533,"Approved","OW442"
"2023-05-12 01:00",19.7356697471948,"Approved","OW442"
"2023-05-12 02:00",19.7356894890362,"Approved","OW442"
"2023-05-12 03:00",19.7357092308777,"Approved","OW442"
"2023-05-12 04:00",19.7377289727192,"Approved","OW442"
"2023-05-12 05:00",19.7397487145607,"Approved","OW442"
"2023-05-12 06:00",19.7427684564021,"Approved","OW442"
"2023-05-12 07:00",19.7457881982436,"Approved","OW442"
"2023-05-12 08:00",19.7478079400851,"Approved","OW442"
"2023-05-12 09:00",19.7508276819266,"Approved","OW442"
"2023-05-12 10:00",19.752847423768,"Approved","OW442"
"2023-05-12 11:00",19.7548671656095,"Approved","OW442"
"2023-05-12 12:00",19.757886907451,"Approved","OW442"
"2023-05-12 13:00",19.7599066492925,"Approved","OW442"
"2023-05-12 14:00",19.7629263911339,"Approved","OW442"
"2023-05-12 15:00",19.7649461329754,"Approved","OW442"
"2023-05-12 16:00",19.7659658748169,"Approved","OW442"
"2023-05-12 17:00",19.7659856166584,"Approved","OW442"
"2023-05-12 18:00",19.7650053584998,"Approved","OW442"
"2023-05-12 19:00",19.7640251003413,"Approved","OW442"
"2023-05-12 20:00",19.7620448421828,"Approved","OW442"
"2023-05-12 21:00",19.7600645840243,"Approved","OW442"
"2023-05-12 22:00",19.7580843258657,"Approved","OW442"
"2023-05-12 23:00",19.7561040677072,"Approved","OW442"
"2023-05-13 00:00",19.7541238095487,"Approved","OW442"
"2023-05-13 01:00",19.7531435513902,"Approved","OW442"
"2023-05-13 02:00",19.7521632932316,"Approved","OW442"
"2023-05-13 03:00",19.7531830350731,"Approved","OW442"
"2023-05-13 04:00",19.7542027769146,"Approved","OW442"
"2023-05-13 05:00",19.7632225187561,"Approved","OW442"
"2023-05-13 06:00",19.7702422605975,"Approved","OW442"
"2023-05-13 07:00",19.774262002439,"Approved","OW442"
"2023-05-13 08:00",19.7792817442805,"Approved","OW442"
"2023-05-13 09:00",19.782301486122,"Approved","OW442"
"2023-05-13 10:00",19.7843212279634,"Approved","OW442"
"2023-05-13 11:00",19.7843409698049,"Approved","OW442"
"2023-05-13 12:00",19.7793607116464,"Approved","OW442"
"2023-05-13 13:00",19.7783804534879,"Approved","OW442"
"2023-05-13 14:00",19.7794001953293,"Approved","OW442"
"2023-05-13 15:00",19.7794199371708,"Approved","OW442"
"2023-05-13 16:00",19.7794396790123,"Approved","OW442"
"2023-05-13 17:00",19.7774594208538,"Approved","OW442"
"2023-05-13 18:00",19.7764791626952,"Approved","OW442"
"2023-05-13 19:00",19.7734989045367,"Approved","OW442"
"2023-05-13 20:00",19.7705186463782,"Approved","OW442"
"2023-05-13 21:00",19.7675383882197,"Approved","OW442"
"2023-05-13 22:00",19.7645581300611,"Approved","OW442"
"2023-05-13 23:00",19.7615778719026,"Approved","OW442"
"2023-05-14 00:00",19.7585976137441,"Approved","OW442"
"2023-05-14 01:00",19.7566173555856,"Approved","OW442"
"2023-05-14 02:00",19.754637097427,"Approved","OW442"
"2023-05-14 03:00",19.7536568392685,"Approved","OW442"
"2023-05-14 04:00",19.75467658111,"Approved","OW442"
"2023-05-14 05:00",19.7566963229515,"Approved","OW442"
"2023-05-14 06:00",19.7577160647929,"Approved","OW442"
"2023-05-14 07:00",19.7597358066344,"Approved","OW442"
"2023-05-14 08:00",19.7607555484759,"Approved","OW442"
"2023-05-14 09:00",19.7627752903174,"Approved","OW442"
"2023-05-14 10:00",19.7637950321588,"Approved","OW442"
"2023-05-14 11:00",19.7648147740003,"Approved","OW442"
"2023-05-14 12:00",19.7658345158418,"Approved","OW442"
"2023-05-14 13:00",19.7658542576833,"Approved","OW442"
"2023-05-14 14:00",19.7668739995247,"Approved","OW442"
"2023-05-14 15:00",19.7668937413662,"Approved","OW442"
"2023-05-14 16:00",19.7669134832077,"Approved","OW442"
"2023-05-14 17:00",19.7639332250492,"Approved","OW442"
"2023-05-14 18:00",19.7619529668906,"Approved","OW442"
"2023-05-14 19:00",19.7579727087321,"Approved","OW442"
"2023-05-14 20:00",19.7549924505736,"Approved","OW442"
"2023-05-14 21:00",19.7520121924151,"Approved","OW442"
"2023-05-14 22:00",19.7500319342565,"Approved","OW442"
"2023-05-14 23:00",19.747051676098,"Approved","OW442"
"2023-05-15 00:00",19.7440714179395,"Approved","OW442"
"2023-05-15 01:00",19.743091159781,"Approved","OW442"
"2023-05-15 02:00",19.7411109016224,"Approved","OW442"
"2023-05-15 03:00",19.7411306434639,"Approved","OW442"
"2023-05-15 04:00",19.7421503853054,"Approved","OW442"
"2023-05-15 05:00",19.7501701271469,"Approved","OW442"
"2023-05-15 06:00",19.7571898689883,"Approved","OW442"
"2023-05-15 07:00",19.7592096108298,"Approved","OW442"
"2023-05-15 08:00",19.7632293526713,"Approved","OW442"
"2023-05-15 09:00",19.7662490945128,"Approved","OW442"
"2023-05-15 10:00",19.7672688363542,"Approved","OW442"
"2023-05-15 11:00",19.7672885781957,"Approved","OW442"
"2023-05-15 12:00",19.7613083200372,"Approved","OW442"
"2023-05-15 13:00",19.7603280618787,"Approved","OW442"
"2023-05-15 14:00",19.7603478037201,"Approved","OW442"
"2023-05-15 15:00",19.7613675455616,"Approved","OW442"
"2023-05-15 16:00",19.7593872874031,"Approved","OW442"
"2023-05-15 17:00",19.7594070292446,"Approved","OW442"
"2023-05-15 18:00",19.757426771086,"Approved","OW442"
"2023-05-15 19:00",19.7534465129275,"Approved","OW442"
"2023-05-15 20:00",19.749466254769,"Approved","OW442"
"2023-05-15 21:00",19.7474859966105,"Approved","OW442"
"2023-05-15 22:00",19.7455057384519,"Approved","OW442"
"2023-05-15 23:00",19.7425254802934,"Approved","OW442"
"2023-05-16 00:00",19.7395452221349,"Approved","OW442"
"2023-05-16 01:00",19.7385649639764,"Approved","OW442"
"2023-05-16 02:00",19.7395847058178,"Approved","OW442"
"2023-05-16 03:00",19.7416044476593,"Approved","OW442"
"2023-05-16 04:00",19.7436241895008,"Approved","OW442"
"2023-05-16 05:00",19.7536439313423,"Approved","OW442"
"2023-05-16 06:00",19.7606636731837,"Approved","OW442"
"2023-05-16 07:00",19.7636834150252,"Approved","OW442"
"2023-05-16 08:00",19.7677031568667,"Approved","OW442"
"2023-05-16 09:00",19.7717228987082,"Approved","OW442"
"2023-05-16 10:00",19.7727426405496,"Approved","OW442"
"2023-05-16 11:00",19.7717623823911,"Approved","OW442"
"2023-05-16 12:00",19.7667821242326,"Approved","OW442"
"2023-05-16 13:00",19.7668018660741,"Approved","OW442"
"2023-05-16 14:00",19.7688216079155,"Approved","OW442"
"2023-05-16 15:00",19.769841349757,"Approved","OW442"
"2023-05-16 16:00",19.7728610915985,"Approved","OW442"
"2023-05-16 17:00",19.77088083344,"Approved","OW442"
"2023-05-16 18:00",19.7699005752814,"Approved","OW442"
"2023-05-16 19:00",19.7679203171229,"Approved","OW442"
"2023-05-16 20:00",19.7649400589644,"Approved","OW442"
"2023-05-16 21:00",19.7629598008059,"Approved","OW442"
"2023-05-16 22:00",19.7599795426473,"Approved","OW442"
"2023-05-16 23:00",19.7589992844888,"Approved","OW442"
"2023-05-17 00:00",19.7580190263303,"Approved","OW442"
"2023-05-17 01:00",19.7580387681718,"Approved","OW442"
"2023-05-17 02:00",19.7590585100132,"Approved","OW442"
"2023-05-17 03:00",19.7590782518547,"Approved","OW442"
"2023-05-17 04:00",19.7620979936962,"Approved","OW442"
"2023-05-17 05:00",19.7701177355377,"Approved","OW442"
"2023-05-17 06:00",19.7761374773791,"Approved","OW442"
"2023-05-17 07:00",19.7801572192206,"Approved","OW442"
"2023-05-17 08:00",19.7811769610621,"Approved","OW442"
"2023-05-17 09:00",19.7831967029036,"Approved","OW442"
"2023-05-17 10:00",19.785216444745,"Approved","OW442"
"2023-05-17 11:00",19.7882361865865,"Approved","OW442"
"2023-05-17 12:00",19.789255928428,"Approved","OW442"
"2023-05-17 13:00",19.7922756702695,"Approved","OW442"
"2023-05-17 14:00",19.7932954121109,"Approved","OW442"
"2023-05-17 15:00",19.7933151539524,"Approved","OW442"
"2023-05-17 16:00",19.7933348957939,"Approved","OW442"
"2023-05-17 17:00",19.7873546376354,"Approved","OW442"
"2023-05-17 18:00",19.7803743794768,"Approved","OW442"
"2023-05-17 19:00",19.7763941213183,"Approved","OW442"
"2023-05-17 20:00",19.7724138631598,"Approved","OW442"
"2023-05-17 21:00",19.7684336050013,"Approved","OW442"
"2023-05-17 22:00",19.7644533468427,"Approved","OW442"
"2023-05-17 23:00",19.7614730886842,"Approved","OW442"
"2023-05-18 00:00",19.7594928305257,"Approved","OW442"
"2023-05-18 01:00",19.7575125723672,"Approved","OW442"
"2023-05-18 02:00",19.7555323142086,"Approved","OW442"
"2023-05-18 03:00",19.7565520560501,"Approved","OW442"
"2023-05-18 04:00",19.7575717978916,"Approved","OW442"
"2023-05-18 05:00",19.7655915397331,"Approved","OW442"
"2023-05-18 06:00",19.7716112815745,"Approved","OW442"
"2023-05-18 07:00",19.777631023416,"Approved","OW442"
"2023-05-18 08:00",19.7796507652575,"Approved","OW442"
"2023-05-18 09:00",19.781670507099,"Approved","OW442"
"2023-05-18 10:00",19.7846902489404,"Approved","OW442"
"2023-05-18 11:00",19.7897099907819,"Approved","OW442"
"2023-05-18 12:00",19.7917297326234,"Approved","OW442"
"2023-05-18 13:00",19.7947494744649,"Approved","OW442"
"2023-05-18 14:00",19.7977692163063,"Approved","OW442"
"2023-05-18 15:00",19.7987889581478,"Approved","OW442"
"2023-05-18 16:00",19.7988086999893,"Approved","OW442"
"2023-05-18 17:00",19.7938284418308,"Approved","OW442"
"2023-05-18 18:00",19.7898481836722,"Approved","OW442"
"2023-05-18 19:00",19.7858679255137,"Approved","OW442"
"2023-05-18 20:00",19.7828876673552,"Approved","OW442"
"2023-05-18 21:00",19.7799074091967,"Approved","OW442"
"2023-05-18 22:00",19.7769271510381,"Approved","OW442"
"2023-05-18 23:00",19.7749468928796,"Approved","OW442"
"2023-05-19 00:00",19.7749666347211,"Approved","OW442"
"2023-05-19 01:00",19.7759863765626,"Approved","OW442"
"2023-05-19 02:00",19.779006118404,"Approved","OW442"
"2023-05-19 03:00",19.7820258602455,"Approved","OW442"
"2023-05-19 04:00",19.785045602087,"Approved","OW442"
"2023-05-19 05:00",19.7930653439285,"Approved","OW442"
"2023-05-19 06:00",19.8020850857699,"Approved","OW442"
"2023-05-19 07:00",19.8041048276114,"Approved","OW442"
"2023-05-19 08:00",19.8071245694529,"Approved","OW442"
"2023-05-19 09:00",19.8091443112944,"Approved","OW442"
"2023-05-19 10:00",19.8101640531358,"Approved","OW442"
"2023-05-19 11:00",19.8141837949773,"Approved","OW442"
"2023-05-19 12:00",19.8142035368188,"Approved","OW442"
"2023-05-19 13:00",19.8172232786603,"Approved","OW442"
"2023-05-19 14:00",19.8182430205017,"Approved","OW442"
"2023-05-19 15:00",19.8172627623432,"Approved","OW442"
"2023-05-19 16:00",19.8172825041847,"Approved","OW442"
"2023-05-19 17:00",19.8093022460262,"Approved","OW442"
"2023-05-19 18:00",19.8053219878676,"Approved","OW442"
"2023-05-19 19:00",19.8013417297091,"Approved","OW442"
"2023-05-19 20:00",19.7973614715506,"Approved","OW442"
"2023-05-19 21:00",19.7943812133921,"Approved","OW442"
"2023-05-19 22:00",19.7914009552335,"Approved","OW442"
"2023-05-19 23:00",19.788420697075,"Approved","OW442"
"2023-05-20 00:00",19.7884404389165,"Approved","OW442"
"2023-05-20 01:00",19.785460180758,"Approved","OW442"
"2023-05-20 02:00",19.7834799225994,"Approved","OW442"
"2023-05-20 03:00",19.7824996644409,"Approved","OW442"
"2023-05-20 04:00",19.7845194062824,"Approved","OW442"
"2023-05-20 05:00",19.7925391481239,"Approved","OW442"
"2023-05-20 06:00",19.8005588899653,"Approved","OW442"
"2023-05-20 07:00",19.8045786318068,"Approved","OW442"
"2023-05-20 08:00",19.8075983736483,"Approved","OW442"
"2023-05-20 09:00",19.8096181154898,"Approved","OW442"
"2023-05-20 10:00",19.8116378573312,"Approved","OW442"
"2023-05-20 11:00",19.8166575991727,"Approved","OW442"
"2023-05-20 12:00",19.8176773410142,"Approved","OW442"
"2023-05-20 13:00",19.8196970828557,"Approved","OW442"
"2023-05-20 14:00",19.8217168246971,"Approved","OW442"
"2023-05-20 15:00",19.8197365665386,"Approved","OW442"
"2023-05-20 16:00",19.8207563083801,"Approved","OW442"
"2023-05-20 17:00",19.8117760502216,"Approved","OW442"
"2023-05-20 18:00",19.809795792063,"Approved","OW442"
"2023-05-20 19:00",19.8058155339045,"Approved","OW442"
"2023-05-20 20:00",19.800835275746,"Approved","OW442"
"2023-05-20 21:00",19.7978550175875,"Approved","OW442"
"2023-05-20 22:00",19.7938747594289,"Approved","OW442"
"2023-05-20 23:00",19.7938945012704,"Approved","OW442"
"2023-05-21 00:00",19.7899142431119,"Approved","OW442"
"2023-05-21 01:00",19.7879339849534,"Approved","OW442"
"2023-05-21 02:00",19.7879537267948,"Approved","OW442"
"2023-05-21 03:00",19.7909734686363,"Approved","OW442"
"2023-05-21 04:00",19.7909932104778,"Approved","OW442"
"2023-05-21 05:00",19.7920129523193,"Approved","OW442"
"2023-05-21 06:00",19.7930326941608,"Approved","OW442"
"2023-05-21 07:00",19.7940524360022,"Approved","OW442"
"2023-05-21 08:00",19.7940721778437,"Approved","OW442"
"2023-05-21 09:00",19.7940919196852,"Approved","OW442"
"2023-05-21 10:00",19.7941116615266,"Approved","OW442"
"2023-05-21 11:00",19.7951314033681,"Approved","OW442"
"2023-05-21 12:00",19.7941511452096,"Approved","OW442"
"2023-05-21 13:00",19.7961708870511,"Approved","OW442"
"2023-05-21 14:00",19.8011906288926,"Approved","OW442"
"2023-05-21 15:00",19.800210370734,"Approved","OW442"
"2023-05-21 16:00",19.7972301125755,"Approved","OW442"
"2023-05-21 17:00",19.796249854417,"Approved","OW442"
"2023-05-21 18:00",19.7952695962584,"Approved","OW442"
"2023-05-21 19:00",19.7932893380999,"Approved","OW442"
"2023-05-21 20:00",19.7913090799414,"Approved","OW442"
"2023-05-21 21:00",19.7893288217829,"Approved","OW442"
"2023-05-21 22:00",19.7873485636244,"Approved","OW442"
"2023-05-21 23:00",19.7863683054658,"Approved","OW442"
"2023-05-22 00:00",19.7843880473073,"Approved","OW442"
"2023-05-22 01:00",19.7814077891488,"Approved","OW442"
"2023-05-22 02:00",19.7784275309903,"Approved","OW442"
"2023-05-22 03:00",19.7774472728317,"Approved","OW442"
"2023-05-22 04:00",19.7774670146732,"Approved","OW442"
"2023-05-22 05:00",19.7834867565147,"Approved","OW442"
"2023-05-22 06:00",19.7895064983562,"Approved","OW442"
"2023-05-22 07:00",19.7945262401976,"Approved","OW442"
"2023-05-22 08:00",19.7975459820391,"Approved","OW442"
"2023-05-22 09:00",19.7985657238806,"Approved","OW442"
"2023-05-22 10:00",19.8015854657221,"Approved","OW442"
"2023-05-22 11:00",19.8056052075635,"Approved","OW442"
"2023-05-22 12:00",19.805624949405,"Approved","OW442"
"2023-05-22 13:00",19.8066446912465,"Approved","OW442"
"2023-05-22 14:00",19.806664433088,"Approved","OW442"
"2023-05-22 15:00",19.8046841749294,"Approved","OW442"
"2023-05-22 16:00",19.8047039167709,"Approved","OW442"
"2023-05-22 17:00",19.7977236586124,"Approved","OW442"
"2023-05-22 18:00",19.7947434004539,"Approved","OW442"
"2023-05-22 19:00",19.7937631422953,"Approved","OW442"
"2023-05-22 20:00",19.7927828841368,"Approved","OW442"
"2023-05-22 21:00",19.7918026259783,"Approved","OW442"
"2023-05-22 22:00",19.7918223678198,"Approved","OW442"
"2023-05-22 23:00",19.7908421096612,"Approved","OW442"
"2023-05-23 00:00",19.7898618515027,"Approved","OW442"
"2023-05-23 01:00",19.7888815933442,"Approved","OW442"
"2023-05-23 02:00",19.7869013351857,"Approved","OW442"
"2023-05-23 03:00",19.7859210770271,"Approved","OW442"
"2023-05-23 04:00",19.7859408188686,"Approved","OW442"
"2023-05-23 05:00",19.7929605607101,"Approved","OW442"
"2023-05-23 06:00",19.7989803025516,"Approved","OW442"
"2023-05-23 07:00",19.801000044393,"Approved","OW442"
"2023-05-23 08:00",19.8010197862345,"Approved","OW442"
"2023-05-23 09:00",19.801039528076,"Approved","OW442"
"2023-05-23 10:00",19.8020592699175,"Approved","OW442"
"2023-05-23 11:00",19.8050790117589,"Approved","OW442"
"2023-05-23 12:00",19.8040987536004,"Approved","OW442"
"2023-05-23 13:00",19.8061184954419,"Approved","OW442"
"2023-05-23 14:00",19.8051382372834,"Approved","OW442"
"2023-05-23 15:00",19.8031579791248,"Approved","OW442"
"2023-05-23 16:00",19.8031777209663,"Approved","OW442"
"2023-05-23 17:00",19.7951974628078,"Approved","OW442"
"2023-05-23 18:00",19.7922172046493,"Approved","OW442"
"2023-05-23 19:00",19.7902369464907,"Approved","OW442"
"2023-05-23 20:00",19.7882566883322,"Approved","OW442"
"2023-05-23 21:00",19.7862764301737,"Approved","OW442"
"2023-05-23 22:00",19.7842961720152,"Approved","OW442"
"2023-05-23 23:00",19.7833159138566,"Approved","OW442"
"2023-05-24 00:00",19.7813356556981,"Approved","OW442"
"2023-05-24 01:00",19.7813553975396,"Approved","OW442"
"2023-05-24 02:00",19.7813751393811,"Approved","OW442"
"2023-05-24 03:00",19.7813948812225,"Approved","OW442"
"2023-05-24 04:00",19.782414623064,"Approved","OW442"
"2023-05-24 05:00",19.7834343649055,"Approved","OW442"
"2023-05-24 06:00",19.783454106747,"Approved","OW442"
"2023-05-24 07:00",19.7834738485884,"Approved","OW442"
"2023-05-24 08:00",19.7834935904299,"Approved","OW442"
"2023-05-24 09:00",19.7825133322714,"Approved","OW442"
"2023-05-24 10:00",19.7825330741129,"Approved","OW442"
"2023-05-24 11:00",19.7835528159543,"Approved","OW442"
"2023-05-24 12:00",19.7835725577958,"Approved","OW442"
"2023-05-24 13:00",19.7835922996373,"Approved","OW442"
"2023-05-24 14:00",19.7846120414788,"Approved","OW442"
"2023-05-24 15:00",19.7846317833202,"Approved","OW442"
"2023-05-24 16:00",19.7836515251617,"Approved","OW442"
"2023-05-24 17:00",19.7816712670032,"Approved","OW442"
"2023-05-24 18:00",19.7806910088447,"Approved","OW442"
"2023-05-24 19:00",19.7797107506861,"Approved","OW442"